Wetbulb
51.90 51.44 51.78 52.03 51.62 51.74 51.26 51.93 52.75 53.52 54.96 56.09 57.18 57.51 58.80 59.01 58.76 60.62 60.69 62.68 61.20 60.39 60.64 61.23 62.48 64.69 65.24 65.60 64.78 62.84 61.62 62.32 61.64 59.83 59.47 59.13 58.24 58.47 58.17 57.79 57.99 56.77 56.06
51.67 51.48 50.72 50.96 51.38 51.30 51.33 51.33 51.93 51.48 53.12 53.26 54.38 55.11 57.27 58.60 58.36 57.98 59.25 59.83 60.24 60.72 61.75 61.02 61.42 62.34 64.55 65.48 64.57 62.99 60.93 61.75 61.63 58.65 57.39 57.01 57.17 58.36 56.45 56.03 54.39 54.87 54.59
52.97 52.52 52.58 51.39 50.83 50.63 50.48 51.00 51.43 50.77 50.88 51.45 52.91 54.27 55.91 57.10 58.09 57.59 58.48 58.43 58.74 59.25 60.18 61.37 61.60 62.39 63.04 63.51 63.65 63.46 62.16 62.03 62.05 59.61 57.33 57.33 55.71 55.81 54.35 53.84 53.26 53.51 53.17
50.50 49.16 48.58 48.95 49.11 49.46 49.69 50.11 49.84 50.07 49.01 49.27 50.19 51.16 52.71 53.97 55.11 55.88 54.91 55.84 56.30 56.71 58.28 60.75 61.71 61.34 62.44 62.52 62.65 63.15 63.04 61.63 61.44 59.81 58.70 56.89 55.66 55.06 55.02 53.12 52.18 52.75 52.77
47.90 47.30 47.03 47.86 48.20 48.16 48.05 48.07 48.32 47.64 47.03 47.78 48.42 49.27 50.02 50.33 52.14 51.69 51.24 51.98 52.81 53.40 54.24 55.75 60.00 59.86 60.13 59.76 61.75 62.27 62.69 61.52 60.25 59.52 58.15 57.09 54.71 53.29 53.36 53.98 53.14 52.48 52.71
46.19 46.25 46.99 46.17 46.28 45.96 46.08 45.46 45.84 45.20 44.80 45.53 46.71 46.26 46.30 47.03 47.26 48.15 49.67 48.90 49.77 50.48 51.12 52.91 54.90 57.15 58.79 56.41 56.21 57.13 60.39 61.97 60.63 59.43 58.53 56.99 56.93 55.73 55.54 53.40 52.32 51.07 50.21
44.77 45.15 45.31 45.12 44.51 44.36 44.24 43.77 43.31 42.77 42.93 43.37 44.00 43.96 44.15 45.35 45.20 45.17 46.03 47.08 47.51 48.87 50.17 51.62 52.31 54.79 55.15 57.01 56.13 55.26 55.00 54.37 57.64 60.75 59.34 58.86 58.09 57.83 55.58 53.69 53.34 53.12 52.31
43.08 43.15 43.59 43.61 43.06 43.19 42.65 42.29 41.71 41.52 41.12 41.39 41.84 42.52 42.82 43.61 43.96 43.44 43.90 45.11 45.44 46.92 48.90 50.37 51.01 51.55 52.22 52.64 53.22 56.29 59.18 60.15 60.51 60.66 61.51 60.92 60.95 59.04 56.99 56.09 54.35 53.01 51.93
41.55 41.96 42.63 43.02 41.98 41.73 40.79 40.34 41.04 40.91 40.77 40.38 41.16 41.18 41.83 42.15 42.33 42.12 43.06 43.47 43.39 44.00 45.99 49.24 50.11 50.21 47.23 44.27 50.24 51.72 54.87 58.86 57.83 53.38 54.62 52.97 50.85 51.82 55.23 55.10 52.58 52.21 50.94
40.26 41.27 42.12 41.84 40.92 40.04 39.88 40.02 40.52 40.52 40.52 41.35 40.80 41.02 41.67 41.71 41.47 41.30 41.87 42.00 41.37 41.90 45.03 47.66 46.76 47.68 44.05 41.19 46.87 49.33 50.92 54.97 59.11 57.76 56.31 52.82 51.97 52.92 50.90 56.81 54.82 53.82 52.33
40.90 41.62 42.25 40.59 39.46 40.00 39.72 39.21 38.62 38.64 39.58 39.35 39.62 40.65 41.46 42.06 41.26 40.53 40.71 41.43 41.16 41.71 42.55 45.11 47.87 43.76 41.22 40.77 41.66 46.41 49.99 52.17 53.02 58.64 57.82 58.44 56.59 55.49 55.83 57.25 56.07 55.74 54.63
41.38 40.22 39.33 38.74 39.83 39.71 38.91 38.54 38.55 38.82 38.05 37.81 38.02 38.07 39.88 41.29 41.14 40.82 40.20 40.41 41.76 41.49 42.39 44.92 46.05 40.34 39.92 40.34 42.53 43.02 42.60 43.67 49.85 54.87 57.90 56.63 56.23 55.59 56.23 57.05 56.05 58.16 58.82
38.39 38.17 38.70 38.92 39.28 39.08 38.44 38.30 37.93 38.19 37.40 36.87 36.84 36.81 37.51 39.35 40.08 40.34 39.87 40.43 41.07 42.00 44.63 43.25 41.14 39.61 39.85 41.97 42.87 44.30 43.90 46.31 48.92 52.14 55.61 57.17 57.39 57.67 57.27 56.69 56.51 57.37 55.49
36.74 37.00 37.45 37.84 38.34 38.75 38.54 38.19 37.55 37.10 36.43 36.26 36.13 35.97 36.56 36.97 37.61 39.17 39.74 40.55 40.94 41.03 42.57 43.51 41.68 41.02 40.48 42.43 44.25 47.49 49.60 48.44 48.77 51.78 54.46 58.24 59.16 57.98 56.37 56.69 55.31 54.28 52.29
36.34 36.59 36.95 37.76 37.61 37.56 37.93 37.69 37.39 37.96 37.41 36.33 36.46 36.64 35.94 35.69 36.91 37.68 37.51 37.70 38.03 37.97 38.56 39.09 38.80 39.97 40.36 41.57 43.88 46.91 51.04 50.96 49.60 51.79 53.35 56.43 58.09 58.66 57.39 57.17 56.05 54.70 52.30
35.02 36.09 36.05 36.08 36.98 37.31 36.94 36.84 38.43 37.89 37.82 37.42 37.22 37.11 37.76 37.50 37.32 37.32 37.31 36.81 36.50 36.60 37.22 36.67 36.85 38.34 39.10 40.69 41.75 43.92 46.96 50.41 50.45 51.99 55.30 55.79 57.17 57.57 57.63 57.78 57.35 55.19 54.18
35.30 35.50 36.12 36.28 36.35 36.25 36.39 35.93 34.81 37.19 38.23 37.70 37.25 37.07 37.07 37.10 37.06 36.94 36.76 36.45 36.12 35.86 35.77 36.36 36.74 36.17 38.58 40.78 42.10 43.12 44.32 48.19 51.20 52.17 54.35 55.43 55.83 57.60 54.42 57.03 55.89 55.19 54.59
36.24 36.59 36.38 36.19 36.50 36.77 36.47 36.32 36.34 35.44 34.60 35.75 37.88 37.53 37.43 37.10 36.99 36.71 36.49 36.39 36.00 36.17 36.25 36.08 36.75 36.97 39.12 40.88 41.83 42.32 44.53 46.79 50.87 51.57 53.57 55.37 56.26 57.05 56.43 56.61 55.41 54.85 53.51
36.03 36.17 36.70 36.71 37.08 37.25 37.12 36.79 36.40 36.01 35.95 35.89 36.96 37.32 37.03 36.69 36.28 36.33 36.34 36.14 35.68 35.79 35.84 36.78 38.39 38.60 39.42 41.49 43.14 43.21 44.25 45.89 47.03 51.10 52.80 54.57 56.22 55.83 56.70 57.29 55.85 47.22 47.97
36.81 36.76 36.56 36.52 36.47 36.24 36.30 36.14 36.25 36.06 35.67 35.59 35.20 35.04 36.22 35.64 34.82 34.55 35.59 35.62 36.11 36.99 37.10 37.02 38.99 40.25 40.04 41.29 42.54 43.27 43.98 45.25 46.71 51.52 51.90 52.96 56.23 54.84 55.39 56.71 56.35 53.29 52.88
36.71 35.90 34.53 36.03 36.06 36.33 36.50 35.94 35.92 35.55 34.39 34.33 34.30 35.42 33.36 33.43 33.25 33.86 34.01 34.64 35.52 35.79 37.55 37.73 39.04 40.07 40.83 41.71 43.03 43.98 44.59 45.53 46.76 50.38 51.51 54.21 55.30 53.72 55.79 57.56 58.08 55.95 53.80
35.77 35.30 35.18 35.16 35.88 35.77 35.59 35.59 34.84 34.48 33.87 33.33 33.40 34.25 32.85 33.46 33.58 33.67 34.39 35.10 36.28 36.42 38.39 38.76 38.50 40.28 40.94 41.94 42.31 43.97 44.52 45.40 47.13 49.36 51.65 53.46 53.47 53.64 54.98 55.26 56.86 57.24 54.14
34.61 34.51 35.04 35.62 35.63 34.68 34.71 34.45 33.81 33.08 32.66 32.81 32.97 32.95 32.81 32.85 33.54 33.49 34.12 35.15 36.42 36.56 38.27 39.06 38.80 39.68 41.64 42.90 43.91 45.02 44.61 45.94 47.40 49.18 50.33 51.48 51.33 53.25 54.29 55.26 55.07 55.33 55.46
34.16 34.87 34.80 34.63 34.33 33.61 33.08 32.39 32.39 32.03 32.35 32.08 32.31 32.27 32.02 32.25 32.73 33.17 33.83 34.74 35.75 36.55 37.63 38.95 39.20 39.17 40.81 42.66 43.60 44.35 44.71 46.67 48.86 48.87 49.97 50.84 51.50 49.00 51.77 53.76 54.35 54.52 55.55
34.47 34.27 33.55 33.08 32.75 32.06 31.85 31.79 31.69 31.58 31.47 31.27 31.11 31.33 31.93 32.11 32.52 32.86 33.91 34.77 35.24 35.57 36.40 37.50 39.50 39.87 41.45 41.97 42.39 43.91 41.05 36.72 42.32 43.07 51.55 51.85 52.01 52.40 51.45 51.82 53.65 53.97 54.80
33.60 33.34 32.87 32.59 31.90 31.85 31.42 30.88 30.60 30.58 30.34 30.52 30.84 31.02 31.39 31.63 32.20 32.83 33.58 34.15 34.89 35.09 35.80 37.46 39.08 39.10 40.73 41.73 42.47 39.57 35.89 34.76 39.80 36.53 50.86 52.17 52.39 52.58 53.40 53.14 52.59 53.01 53.33
MSLP
1018.81 1018.95 1019.38 1019.42 1019.10 1019.12 1018.45 1019.29 1019.06 1018.79 1017.83 1017.42 1016.98 1016.42 1016.22 1015.90 1015.78 1015.50 1015.40 1015.12 1015.13 1015.21 1015.26 1015.03 1014.49 1014.27 1014.04 1013.98 1013.94 1014.26 1014.26 1014.39 1014.51 1015.49 1016.03 1016.47 1017.00 1017.40 1017.75 1017.95 1018.40 1018.60 1019.38
1018.51 1018.52 1018.40 1018.51 1019.19 1019.37 1019.18 1019.03 1019.01 1018.81 1017.99 1017.65 1017.32 1016.55 1016.45 1016.00 1015.94 1015.74 1015.59 1015.40 1015.13 1014.95 1014.86 1014.70 1014.45 1014.01 1013.71 1013.66 1013.75 1013.90 1014.04 1014.27 1014.72 1015.10 1015.84 1016.40 1016.72 1017.27 1017.53 1017.91 1018.61 1018.84 1019.11
1019.26 1019.72 1019.73 1019.72 1019.60 1019.81 1019.60 1019.65 1019.48 1018.89 1018.28 1017.78 1017.68 1017.03 1016.51 1016.09 1015.79 1015.87 1015.69 1015.36 1015.11 1014.94 1014.70 1014.36 1014.12 1014.09 1013.76 1013.53 1013.29 1013.53 1013.69 1014.07 1014.43 1014.72 1015.20 1015.85 1016.41 1017.01 1017.53 1018.09 1018.60 1018.85 1019.10
1019.65 1020.04 1020.42 1020.42 1020.34 1020.31 1020.16 1020.30 1020.14 1019.68 1018.94 1018.35 1017.56 1017.66 1016.71 1016.17 1015.91 1015.62 1015.88 1015.45 1015.22 1015.09 1014.76 1014.45 1014.09 1013.92 1013.82 1013.62 1013.22 1013.03 1013.30 1013.62 1014.13 1014.40 1014.90 1015.46 1015.94 1016.73 1017.01 1017.76 1018.31 1018.72 1018.71
1020.27 1020.57 1020.65 1020.70 1020.46 1020.46 1020.51 1020.38 1019.97 1019.79 1019.34 1018.59 1017.65 1018.03 1016.85 1016.45 1016.04 1016.14 1015.94 1015.42 1015.39 1014.99 1014.69 1014.67 1014.33 1014.05 1013.94 1013.75 1013.52 1013.07 1012.97 1013.29 1013.84 1014.23 1014.29 1014.92 1015.54 1015.99 1016.03 1017.00 1017.73 1018.32 1018.45
1020.53 1020.73 1020.88 1020.90 1020.57 1020.40 1020.42 1019.99 1019.69 1019.61 1019.27 1018.82 1018.24 1017.32 1017.03 1016.87 1016.53 1016.45 1016.26 1015.66 1015.34 1015.06 1014.78 1014.52 1014.28 1014.08 1013.91 1013.80 1013.83 1013.30 1012.75 1012.72 1012.91 1013.71 1013.80 1014.13 1014.60 1015.26 1015.34 1016.58 1017.27 1017.95 1018.18
1021.18 1021.35 1021.35 1021.06 1020.74 1020.54 1020.28 1019.84 1019.59 1019.41 1019.01 1018.70 1018.11 1017.36 1017.00 1017.00 1016.72 1016.31 1016.07 1015.69 1015.34 1014.74 1014.69 1014.31 1014.17 1013.86 1014.14 1013.59 1013.69 1013.44 1012.86 1012.42 1012.24 1012.48 1013.02 1013.19 1013.74 1014.32 1015.04 1015.94 1016.81 1016.96 1017.14
1021.47 1021.41 1021.20 1020.78 1020.70 1020.37 1020.23 1019.84 1019.29 1018.84 1018.41 1018.21 1017.86 1017.28 1016.82 1016.50 1016.64 1015.99 1015.70 1015.58 1015.06 1014.61 1014.57 1014.30 1013.89 1013.86 1013.69 1013.59 1013.63 1013.40 1012.67 1012.10 1012.06 1011.97 1012.04 1012.08 1012.57 1013.33 1013.98 1013.83 1015.96 1017.05 1017.31
1021.53 1021.35 1021.05 1020.84 1020.73 1020.32 1019.92 1019.39 1018.81 1018.26 1017.80 1017.77 1017.37 1016.94 1016.78 1016.15 1016.02 1015.60 1015.57 1015.19 1014.67 1014.53 1014.11 1013.88 1013.79 1013.23 1013.00 1013.51 1013.61 1013.52 1012.89 1012.08 1011.06 1011.53 1011.46 1011.41 1012.01 1012.49 1013.14 1013.92 1015.32 1016.26 1016.81
1021.90 1021.64 1021.26 1020.90 1020.44 1020.12 1019.86 1019.61 1018.91 1018.08 1017.66 1017.35 1016.90 1016.57 1015.86 1015.64 1015.36 1015.27 1015.26 1015.07 1014.46 1014.06 1013.60 1013.34 1013.16 1013.30 1012.82 1013.15 1013.23 1013.46 1012.96 1012.02 1011.51 1011.17 1011.47 1011.66 1011.61 1012.10 1012.42 1012.56 1013.16 1014.79 1015.63
1021.59 1021.31 1021.06 1020.94 1020.71 1020.21 1019.57 1018.90 1018.18 1017.75 1017.43 1017.15 1016.53 1016.02 1015.41 1014.93 1014.80 1014.94 1014.74 1014.62 1014.15 1013.65 1013.13 1012.94 1012.74 1013.16 1012.68 1012.87 1012.92 1013.04 1012.46 1012.04 1011.58 1011.09 1010.72 1010.90 1011.11 1011.58 1012.14 1012.25 1012.36 1013.05 1014.34
1021.39 1020.99 1020.68 1020.32 1019.68 1019.11 1018.70 1018.24 1017.88 1017.53 1017.26 1016.62 1015.93 1015.65 1015.11 1014.62 1014.17 1014.02 1014.22 1014.19 1013.74 1013.43 1013.07 1012.82 1012.41 1012.68 1012.38 1012.44 1012.24 1012.26 1011.91 1012.16 1011.74 1011.03 1010.45 1010.36 1010.55 1010.71 1011.28 1011.71 1011.79 1012.17 1012.95
1021.36 1020.88 1020.47 1020.08 1019.54 1019.10 1018.66 1018.15 1017.74 1017.33 1016.88 1016.35 1016.14 1015.64 1014.56 1013.81 1013.65 1013.60 1013.67 1013.49 1013.14 1012.92 1013.01 1012.66 1012.14 1012.29 1012.25 1011.95 1011.63 1011.38 1011.26 1011.40 1011.27 1010.53 1009.89 1009.72 1009.82 1010.10 1010.72 1011.33 1011.73 1012.56 1012.88
1021.27 1020.81 1020.38 1019.95 1019.49 1019.08 1018.72 1018.33 1017.93 1017.50 1017.14 1016.71 1016.09 1015.20 1014.36 1013.82 1013.62 1013.54 1013.28 1012.90 1012.72 1012.56 1012.25 1011.88 1012.10 1012.08 1011.82 1011.50 1011.00 1010.69 1010.55 1010.87 1010.42 1009.96 1009.47 1009.28 1009.19 1009.59 1009.94 1010.72 1011.31 1011.88 1012.66
1021.06 1020.62 1020.19 1019.76 1019.27 1018.77 1018.38 1018.04 1017.56 1017.04 1016.67 1016.10 1015.44 1014.89 1014.31 1013.76 1013.53 1013.35 1013.18 1012.83 1012.58 1012.36 1012.37 1012.03 1011.81 1011.56 1011.12 1010.83 1010.64 1010.26 1009.87 1009.62 1009.76 1009.44 1009.03 1008.91 1008.85 1008.87 1009.11 1009.59 1010.20 1011.34 1011.72
1020.75 1020.30 1019.87 1019.35 1018.80 1018.28 1017.68 1017.04 1016.67 1016.14 1015.69 1015.20 1014.72 1014.34 1013.68 1013.16 1012.76 1012.56 1012.39 1012.18 1012.00 1011.90 1011.61 1011.07 1010.74 1010.54 1010.30 1010.14 1010.00 1009.59 1009.33 1008.83 1008.79 1008.67 1008.47 1008.48 1008.38 1008.47 1008.73 1009.14 1009.66 1010.36 1011.15
1020.29 1019.75 1019.13 1018.61 1018.07 1017.52 1016.93 1016.31 1015.52 1014.89 1014.57 1014.11 1013.63 1013.20 1012.88 1012.58 1012.14 1011.77 1011.50 1011.31 1011.11 1011.06 1010.55 1010.20 1009.90 1009.83 1009.66 1009.48 1009.31 1009.12 1008.86 1008.47 1007.92 1008.07 1007.94 1007.85 1007.97 1008.02 1008.16 1008.52 1009.17 1009.79 1010.44
1019.62 1019.06 1018.56 1018.02 1017.41 1016.77 1016.17 1015.57 1014.96 1014.25 1013.53 1012.96 1012.53 1012.21 1011.74 1011.47 1011.18 1010.85 1010.55 1010.27 1009.97 1009.72 1009.54 1009.10 1008.85 1008.82 1008.75 1008.61 1008.60 1008.47 1008.25 1007.97 1007.41 1007.32 1007.27 1007.22 1007.19 1007.35 1007.48 1007.76 1008.43 1009.08 1009.90
1019.02 1018.50 1017.99 1017.40 1016.75 1016.15 1015.47 1014.78 1014.13 1013.50 1012.85 1012.12 1011.56 1011.16 1010.79 1010.44 1010.07 1009.76 1009.52 1009.22 1008.89 1008.70 1008.58 1008.20 1007.96 1007.95 1007.95 1007.92 1007.76 1007.73 1007.53 1007.23 1007.06 1006.51 1006.51 1006.62 1006.58 1006.68 1006.88 1007.29 1007.83 1008.45 1009.35
1018.63 1018.08 1017.54 1016.92 1016.23 1015.52 1014.83 1014.11 1013.37 1012.73 1012.11 1011.52 1010.96 1010.48 1010.13 1009.67 1009.21 1008.95 1008.76 1008.45 1008.09 1007.81 1007.69 1007.50 1007.20 1007.02 1007.05 1006.93 1006.86 1006.93 1006.74 1006.54 1006.22 1005.61 1005.80 1005.94 1006.03 1006.20 1006.62 1006.90 1007.44 1008.16 1009.14
1018.44 1017.73 1017.17 1016.48 1015.75 1015.00 1014.27 1013.57 1012.91 1012.26 1011.57 1010.88 1010.38 1010.00 1009.76 1009.43 1008.77 1008.41 1008.13 1007.81 1007.49 1007.27 1006.99 1006.83 1006.46 1006.13 1006.20 1006.10 1006.01 1005.99 1005.86 1005.85 1005.79 1005.29 1005.13 1005.28 1005.55 1005.84 1006.22 1006.51 1006.94 1007.67 1008.64
1018.09 1017.40 1016.70 1016.03 1015.25 1014.47 1013.77 1013.15 1012.46 1011.80 1011.16 1010.49 1009.80 1009.33 1009.04 1008.71 1008.15 1007.68 1007.33 1007.05 1006.73 1006.59 1006.29 1006.04 1005.75 1005.52 1005.44 1005.39 1005.24 1005.13 1005.29 1005.24 1005.15 1004.76 1004.55 1004.98 1005.18 1005.67 1005.98 1006.25 1006.55 1007.17 1008.18
1017.67 1016.94 1016.22 1015.49 1014.79 1014.03 1013.27 1012.70 1012.03 1011.40 1010.64 1009.97 1009.31 1008.65 1008.20 1007.78 1007.29 1006.83 1006.48 1006.21 1005.94 1005.71 1005.48 1005.19 1005.05 1005.01 1004.86 1004.74 1004.71 1004.61 1004.69 1004.73 1004.79 1004.85 1004.50 1004.69 1004.88 1005.51 1005.77 1006.08 1006.47 1006.99 1007.50
1017.28 1016.58 1015.92 1015.17 1014.43 1013.75 1013.02 1012.27 1011.54 1010.83 1010.14 1009.42 1008.70 1008.04 1007.45 1006.93 1006.47 1006.03 1005.68 1005.40 1005.12 1004.89 1004.71 1004.62 1004.48 1004.39 1004.38 1004.22 1004.25 1004.25 1004.41 1004.41 1004.41 1004.42 1004.59 1004.65 1004.87 1005.43 1005.76 1006.01 1006.28 1006.64 1007.14
1017.09 1016.36 1015.67 1014.90 1014.10 1013.34 1012.55 1011.78 1011.03 1010.37 1009.62 1008.85 1008.03 1007.35 1006.71 1006.14 1005.62 1005.18 1004.85 1004.57 1004.37 1004.25 1004.08 1004.01 1003.84 1003.84 1003.78 1003.87 1003.93 1003.94 1003.94 1004.32 1004.32 1004.27 1004.42 1004.63 1004.67 1005.08 1005.51 1005.78 1006.04 1006.38 1006.75
1017.01 1016.23 1015.46 1014.66 1013.85 1013.10 1012.31 1011.48 1010.71 1009.93 1009.11 1008.27 1007.48 1006.69 1005.96 1005.33 1004.81 1004.37 1004.02 1003.80 1003.67 1003.67 1003.54 1003.49 1003.36 1003.51 1003.44 1003.56 1003.52 1003.57 1003.76 1003.96 1004.01 1004.16 1004.01 1004.14 1004.36 1004.79 1005.01 1005.36 1005.75 1006.07 1006.45
Wind_Speed
2 5 5 5 6 5 5 4 5 6 5 5 6 6 5 5 6 5 5 5 4 4 5 7 8 6 5 4 4 3 5 6 6 2 2 3 4 7 6 6 6 6 5
4 4 5 6 7 6 5 4 4 6 5 7 7 6 7 4 4 5 6 6 6 6 7 6 10 7 6 4 2 6 4 4 2 7 2 3 3 7 7 8 5 4 4
4 2 2 4 4 4 6 7 7 6 6 7 8 8 8 8 6 5 4 5 5 5 6 6 7 9 7 5 4 3 2 4 3 3 4 2 2 4 4 4 4 4 4
5 6 5 4 4 4 4 5 6 7 7 7 6 9 8 9 8 7 8 7 6 6 6 7 4 7 8 6 5 3 2 3 5 5 5 4 3 3 4 4 4 3 4
5 4 4 4 3 3 4 5 4 5 7 8 7 8 7 8 7 8 8 7 7 6 5 7 5 6 10 9 5 6 4 4 4 5 5 4 4 4 9 5 5 5 5
5 5 4 4 4 4 5 6 6 7 7 8 8 8 9 8 11 13 8 8 9 6 6 6 5 7 5 8 11 10 6 6 7 5 4 6 8 5 7 6 5 5 4
4 3 3 4 5 5 7 8 7 7 7 8 8 7 9 9 13 13 14 8 9 8 7 6 5 4 6 5 7 8 9 11 9 9 8 8 9 10 9 8 9 5 3
3 3 5 5 6 6 7 7 7 7 7 9 10 10 9 8 13 13 16 10 8 10 9 8 6 7 6 5 6 7 7 6 9 8 10 9 8 12 11 11 8 4 3
6 6 7 6 7 7 8 9 9 6 7 8 9 12 11 9 11 13 14 11 10 10 10 8 7 7 7 2 4 7 8 8 7 12 10 10 14 17 13 10 9 8 4
4 6 6 6 7 8 8 8 8 8 10 9 12 11 14 11 10 12 13 8 10 9 9 9 6 7 4 5 2 6 6 8 8 2 5 5 14 16 21 12 12 10 4
6 6 3 4 7 8 8 9 9 9 10 10 12 11 12 10 10 13 15 9 8 9 9 7 6 5 3 1 0 5 7 7 10 7 7 8 9 11 10 7 11 9 6
6 8 6 7 7 8 8 9 9 9 10 11 11 11 9 9 10 11 13 12 12 8 9 7 3 6 8 9 5 9 12 9 7 6 5 7 7 10 10 9 10 9 4
7 7 9 10 8 8 9 10 9 9 9 10 9 10 10 8 8 11 13 10 10 7 6 6 6 5 8 7 7 9 5 5 7 6 4 5 9 9 8 6 6 7 7
9 9 9 9 9 8 6 7 7 7 7 8 9 9 9 9 8 8 8 7 9 9 9 5 6 8 8 8 7 7 6 6 7 7 6 5 4 8 10 9 7 8 5
8 7 9 7 8 8 8 7 8 9 9 9 9 9 9 9 9 10 10 10 10 11 12 9 7 6 7 6 6 7 7 6 7 8 7 6 6 5 8 10 9 8 6
9 6 7 7 7 7 8 8 12 16 19 19 20 16 11 17 20 19 18 17 17 15 9 9 8 7 7 7 7 7 7 7 6 7 8 6 6 6 6 7 8 11 10
7 8 7 9 7 8 8 8 9 9 15 17 18 19 20 19 22 22 20 18 17 13 9 8 8 9 8 8 6 6 8 7 7 8 8 8 7 7 7 6 8 9 9
9 14 8 7 8 8 8 9 8 9 10 9 11 13 15 18 19 19 18 15 8 8 8 10 9 9 8 9 7 7 7 7 6 7 8 8 8 7 5 7 9 9 9
8 8 8 8 8 11 9 9 9 9 10 10 9 10 11 14 17 17 17 9 8 7 8 9 9 9 10 9 8 7 7 7 7 7 9 8 8 7 7 7 7 8 11
8 15 12 8 9 9 9 9 9 10 10 10 9 9 8 8 9 8 8 8 8 8 7 9 9 9 9 9 8 7 7 7 7 8 9 10 8 7 5 8 8 9 10
7 10 11 9 9 9 9 10 10 10 10 10 10 9 11 10 10 9 9 9 9 8 8 8 7 8 9 9 8 7 7 6 6 6 9 8 7 6 7 8 9 9 9
8 9 8 8 9 10 10 10 10 10 11 11 11 10 12 9 9 9 9 9 9 8 7 7 7 6 7 8 8 7 6 5 5 5 5 7 6 6 6 4 7 10 10
8 9 9 9 9 11 10 10 9 10 11 11 11 10 9 8 9 9 9 9 8 7 7 6 7 6 5 7 8 5 5 5 3 3 2 4 5 6 6 7 8 8 10
8 9 10 10 9 10 10 10 10 12 11 11 10 10 10 9 9 10 9 8 8 8 7 7 6 9 7 6 5 6 4 2 4 5 6 4 6 6 6 7 7 10 9
9 9 10 10 10 10 10 10 10 10 10 10 10 10 10 10 10 9 8 8 7 8 9 7 6 8 7 10 9 8 5 6 7 6 5 8 8 10 8 7 7 6 6
10 10 10 9 9 10 10 11 11 10 11 10 10 10 10 10 9 9 8 7 6 7 9 5 6 9 10 8 9 9 6 7 9 8 7 6 7 6 6 8 11 8 9
Wind_Direction
118 54 16 359 9 355 37 334 317 306 334 335 322 329 331 342 346 357 358 1 348 304 280 281 277 277 293 264 233 236 219 212 203 91 98 145 150 157 139 133 137 144 148
122 100 103 59 17 11 21 7 347 333 342 333 321 319 311 305 320 338 340 350 1 347 309 283 278 275 255 265 255 240 216 229 198 163 143 153 156 179 155 144 159 159 160
87 103 63 50 79 29 9 355 347 348 357 357 342 330 321 318 323 315 312 323 340 340 334 302 279 282 276 257 243 257 211 201 220 166 147 146 118 166 136 129 167 177 186
68 59 49 46 44 24 11 346 341 340 344 339 345 324 336 330 327 343 340 333 333 330 331 342 311 279 268 263 263 249 192 220 195 167 173 166 134 158 146 161 173 198 188
76 74 49 16 19 4 348 328 319 321 320 319 328 308 330 333 322 343 330 330 317 321 323 328 340 331 315 301 275 266 226 180 186 205 171 166 165 172 185 172 187 188 212
48 29 18 1 345 336 316 320 314 316 315 314 311 330 326 316 322 324 346 332 322 320 309 307 319 311 325 318 294 263 232 216 193 201 192 206 201 194 157 169 158 181 217
59 27 341 325 318 315 315 315 308 300 305 304 302 314 311 306 308 314 326 324 311 309 301 293 303 310 314 317 314 279 271 251 229 197 200 198 185 185 163 163 199 190 180
19 342 321 315 303 297 295 293 292 295 302 304 303 303 293 300 299 308 316 313 305 300 298 294 284 287 288 304 314 299 282 251 250 230 220 199 186 169 187 160 164 141 94
336 328 318 302 293 295 295 296 282 278 289 289 295 301 289 284 290 299 308 310 305 299 295 279 279 282 275 350 322 309 305 290 232 234 221 181 165 167 168 139 158 169 189
290 284 287 303 316 314 299 299 311 316 303 296 292 286 286 285 290 288 290 290 295 299 297 291 268 272 299 9 294 288 287 283 287 214 215 208 171 171 168 177 150 179 152
296 287 322 309 287 284 301 309 309 305 297 295 297 294 290 283 286 279 278 284 285 293 298 295 288 341 28 353 235 259 250 307 308 273 205 199 181 171 184 176 167 158 170
323 316 305 301 297 308 301 299 295 296 293 296 299 294 288 289 283 281 276 273 283 274 286 285 274 334 330 315 284 268 274 291 272 262 244 200 187 187 186 181 175 171 142
323 311 312 303 300 298 298 297 300 294 295 297 296 291 294 302 300 300 297 293 299 301 272 265 299 300 296 305 278 279 279 257 249 248 239 220 199 188 178 166 150 151 115
321 318 315 303 299 295 287 283 278 275 275 273 277 284 293 298 298 293 292 301 311 310 303 294 309 295 281 277 300 288 235 249 241 238 232 238 209 188 174 173 170 158 120
312 300 295 288 290 291 283 277 274 272 270 278 278 279 283 281 279 283 290 290 290 290 302 287 283 280 287 288 282 283 252 222 237 228 220 228 224 197 191 167 169 161 154
319 308 290 290 283 281 280 280 260 259 268 269 270 266 275 272 278 278 277 275 276 280 279 278 279 276 271 277 274 273 286 237 219 227 216 208 228 197 186 193 175 175 172
297 296 297 297 289 284 283 285 290 282 270 269 267 267 267 269 276 277 278 277 271 270 260 259 256 261 257 257 252 259 266 277 216 226 219 211 211 215 175 182 178 179 170
297 298 295 291 290 290 288 286 285 289 292 290 273 265 271 276 277 278 276 282 275 252 253 258 256 256 248 248 240 246 254 263 243 216 212 216 205 213 188 189 169 172 151
305 301 301 295 291 292 290 289 286 286 286 285 287 282 275 271 279 281 277 271 268 262 261 256 247 244 242 241 238 238 244 256 274 221 213 209 205 193 205 180 172 161 139
301 300 300 298 297 294 291 290 291 291 292 292 291 292 299 282 288 290 286 280 274 260 259 258 255 245 238 240 237 230 238 245 272 221 207 206 199 176 206 186 172 158 168
305 308 302 294 296 294 294 293 293 293 291 292 294 291 282 282 285 279 277 274 268 266 255 257 258 243 240 246 235 230 228 235 267 241 209 197 183 154 195 201 185 163 162
310 303 297 294 293 296 295 296 294 294 296 294 293 289 277 268 273 272 268 265 264 267 259 255 248 261 234 244 239 234 213 231 261 276 177 178 169 160 171 169 172 167 159
309 301 297 297 299 299 301 301 296 293 290 291 292 290 288 278 274 272 271 269 265 263 271 246 250 251 256 235 240 245 200 215 232 270 217 167 136 162 171 178 174 171 171
300 306 308 307 306 307 302 299 295 290 290 291 289 287 285 283 280 277 274 270 264 263 259 264 248 243 248 235 231 237 215 267 214 240 217 191 155 156 180 191 184 191 188
316 316 313 310 309 306 306 306 303 301 298 296 294 290 288 284 280 276 270 267 263 262 262 257 243 246 248 228 240 241 216 194 253 236 208 197 167 168 182 195 199 197 180
322 319 315 312 313 315 314 312 310 307 305 302 297 292 288 285 281 276 271 263 254 253 257 266 229 259 243 238 245 244 225 207 228 214 190 162 159 173 188 195 207 204 196